This is the latest recevied weather packets stored in our database for station/object WP3OF-3. If no packets are shown the sender has not sent any weather packets the latest 10 day(s).
| Time | Temp. | Humidity | Pressure | Rain* | Wind** | Luminosity | Snow |
|---|---|---|---|---|---|---|---|
| 1777737092 | 29.44° C | 71% | 1019.1 hPa | 0 mm | - | - | - |
| 1777736160 | 28.33° C | 70% | 1019.4 hPa | 0 mm | - | - | - |
| 1777735857 | 28.89° C | 72% | 1019.4 hPa | 0 mm | - | - | - |
| 1777735554 | 28.33° C | 74% | 1019.6 hPa | 0 mm | - | - | - |
| 1777735251 | 28.89° C | 70% | 1019.6 hPa | 0 mm | - | - | - |
| 1777734948 | 30° C | 69% | 1019.7 hPa | 0 mm | - | - | - |
| 1777734646 | 29.44° C | 67% | 1019.7 hPa | 0 mm | - | - | - |
| 1777734343 | 29.44° C | 69% | 1019.9 hPa | 0 mm | - | - | - |
| 1777734039 | 28.89° C | 68% | 1019.9 hPa | 0 mm | - | - | - |
| 1777733735 | 29.44° C | 66% | 1019.8 hPa | 0 mm | - | - | - |
| 1777733432 | 29.44° C | 67% | 1019.9 hPa | 0 mm | - | - | - |
| 1777733129 | 29.44° C | 68% | 1019.8 hPa | 0 mm | - | - | - |
| 1777732826 | 28.89° C | 71% | 1020 hPa | 0 mm | - | - | - |
| 1777732522 | 28.89° C | 69% | 1019.9 hPa | 0 mm | - | - | - |
| 1777732220 | 28.33° C | 69% | 1020 hPa | 0 mm | - | - | - |
| 1777731917 | 28.89° C | 72% | 1020 hPa | 0 mm | - | - | - |
| 1777731613 | 28.33° C | 70% | 1019.9 hPa | 0 mm | - | - | - |
| 1777731311 | 28.33° C | 72% | 1020.1 hPa | 0 mm | - | - | - |
| 1777731009 | 28.33° C | 72% | 1019.9 hPa | 0 mm | - | - | - |
| 1777730707 | 27.78° C | 73% | 1019.9 hPa | 0 mm | - | - | - |
| 1777730403 | 27.78° C | 75% | 1019.9 hPa | 0 mm | - | - | - |
| 1777730099 | 27.22° C | 75% | 1019.8 hPa | 0 mm | - | - | - |
| 1777729795 | 27.22° C | 74% | 1020 hPa | 0 mm | - | - | - |
| 1777729492 | 26.67° C | 77% | 1020 hPa | 0 mm | - | - | - |
| 1777729189 | 26.67° C | 75% | 1020 hPa | 0 mm | - | - | - |
* Rain latest hour (hover to see other rain measurements)
** Current wind speed in m/s (hover to see current wind gust speed)